This demonstration page uses our WeatherBlox Daily Observations layout. Learn more.

Left ArrowRight Arrow

Hourly Observations for October 7, 2020

Temp ( °F °C ) Dew Point ( °F °C ) Humidity (%) Winds ( mph kmh ) Pressure ( in mb ) Visibility ( mi km ) Precip ( " mm )
12:15 am 00:15 Clear 62 16.8 38 3.6 42 42 SSW 6 9 29.88 1012 10 16 N/A
12:35 am 00:35 Clear 60 15.8 38 3.6 44 44 SW 5 7 29.89 1012 10 16 N/A
12:55 am 00:55 Clear 60 15.8 38 3.5 44 44 SW 6 9 29.90 1013 10 16 N/A
1:15 am 01:15 Clear 60 15.8 38 3.6 44 44 SW 7 11 29.89 1012 10 16 N/A
1:35 am 01:35 Clear 60 15.3 38 3.6 46 46 SW 3 6 29.90 1012 10 16 N/A
1:55 am 01:55 Clear 60 15.5 38 3.2 44 44 SW 6 9 29.91 1013 10 16 N/A
2:15 am 02:15 Clear 61 16.3 37 3 41 41 W 5 7 29.92 1013 10 16 N/A
2:35 am 02:35 Clear 62 16.6 36 2.3 38 38 WSW 8 13 29.92 1013 10 16 N/A
2:55 am 02:55 Clear 64 18 34 1.3 33 33 WSW 9 15 29.90 1013 10 16 N/A
3:15 am 03:15 Clear 67 19.7 33 0.7 28 28 W 15 24 29.88 1012 10 16 N/A
3:35 am 03:35 Clear 67 19.3 33 0.7 29 29 W 13 20 29.87 1012 10 16 N/A
3:55 am 03:55 Clear 65 18.2 34 1 32 32 W 10 17 29.87 1012 10 16 N/A
4:15 am 04:15 Clear 65 18.4 34 1 31 31 W 10 17 29.87 1012 10 16 N/A
4:35 am 04:35 Clear 64 17.7 33 0.8 32 32 W 10 17 29.88 1012 10 16 N/A
4:55 am 04:55 Clear 64 17.6 33 0.8 32 32 W 9 15 29.88 1012 10 16 N/A
5:15 am 05:15 Clear 63 17 33 0.7 33 33 W 8 13 29.89 1012 10 16 N/A
5:35 am 05:35 Clear 62 16.5 33 0.6 34 34 W 7 11 29.90 1012 10 16 N/A
5:55 am 05:55 Clear 59 15 33 0.3 37 37 W 6 9 29.91 1013 10 16 N/A
6:15 am 06:15 Clear 60 15.7 32 0.2 35 35 N N/A 29.90 1013 10 16 N/A
6:35 am 06:35 Clear 59 15.2 32 0.1 36 36 N N/A 29.92 1013 10 16 N/A
6:55 am 06:55 Clear 55 12.8 33 0.6 44 44 N N/A 29.94 1014 10 16 N/A
7:15 am 07:15 Clear 52 11.2 34 0.9 49 49 N N/A 29.95 1014 10 16 N/A
7:35 am 07:35 Clear 50 9.8 35 1.6 57 57 N N/A 29.97 1015 10 16 N/A
7:55 am 07:55 Sunny 47 8.3 37 2.5 67 67 N N/A 30.00 1016 10 16 N/A
8:15 am 08:15 Sunny 49 9.6 36 2.2 60 60 N N/A 30.01 1016 7 11 N/A
8:35 am 08:35 Sunny 50 9.8 37 2.9 62 62 N N/A 30.00 1016 7 11 N/A
8:55 am 08:55 Sunny 55 12.7 37 2.6 51 51 N N/A 29.98 1015 7 11 N/A
9:15 am 09:15 Sunny 59 14.8 36 2.4 43 43 N N/A 29.97 1015 7 11 N/A
9:35 am 09:35 Sunny 61 16.2 36 2 39 39 N N/A 29.96 1015 7 11 N/A
9:55 am 09:55 Sunny 64 17.9 36 2.1 35 35 N N/A 29.94 1014 10 16 N/A
10:15 am 10:15 Sunny 68 19.9 34 1 28 28 N N/A 29.93 1013 10 16 N/A
10:35 am 10:35 Sunny 71 21.6 34 0.9 25 25 N 3 6 29.90 1013 10 16 N/A
10:55 am 10:55 Sunny 73 22.7 33 0.7 23 23 N 3 6 29.92 1013 10 16 N/A
11:15 am 11:15 Sunny 75 24 33 0.8 22 22 N 6 9 29.90 1013 10 16 N/A
11:35 am 11:35 Sunny 77 24.8 34 1.1 21 21 NNE 8 13 29.91 1013 10 16 N/A
11:55 am 11:55 Sunny 78 25.6 34 1 20 20 NNE 7 11 29.90 1013 10 16 N/A
12:15 pm 12:15 Sunny 80 26.4 35 1.7 20 20 NE 9 15 29.89 1012 10 16 N/A
12:55 pm 12:55 Sunny 81 27.1 37 2.7 21 21 NE 10 17 29.89 1012 10 16 N/A
1:15 pm 13:15 Hazy 82 27.5 37 2.9 20 20 NE 14 22 29.89 1012 2 3 N/A
1:35 pm 13:35 Sunny 83 28.4 37 3 20 20 NE 10 17 29.87 1012 10 16 N/A
1:55 pm 13:55 Sunny 83 28.3 39 4 21 21 NE 13 20 29.87 1012 10 16 N/A
2:15 pm 14:15 Sunny 83 28.5 40 4.5 22 22 NE 13 20 29.86 1011 10 16 N/A
2:35 pm 14:35 Sunny 84 28.7 41 4.8 22 22 ENE 12 19 29.86 1011 10 16 N/A
2:55 pm 14:55 Sunny 83 28.5 41 5 22 22 NE 15 24 29.85 1011 10 16 N/A
3:15 pm 15:15 Sunny 84 28.7 41 5.2 22 22 NE 12 19 29.86 1011 10 16 N/A
3:35 pm 15:35 Sunny 84 28.9 42 5.7 23 23 ENE 12 19 29.86 1011 10 16 N/A
3:55 pm 15:55 Sunny 84 29 42 5.6 23 23 ENE 12 19 29.85 1011 10 16 N/A
4:15 pm 16:15 Sunny 85 29.2 40 4.7 21 21 E 12 19 29.84 1011 10 16 N/A
4:35 pm 16:35 Sunny 84 28.8 41 5 22 22 ENE 14 22 29.85 1011 10 16 N/A
4:55 pm 16:55 Sunny 84 28.7 41 4.9 22 22 ENE 13 20 29.85 1011 10 16 N/A
5:15 pm 17:15 Sunny 83 28.2 41 5.2 23 23 ENE 13 20 29.85 1011 10 16 N/A
5:35 pm 17:35 Sunny 82 27.7 41 5.2 24 24 ENE 10 17 29.86 1011 10 16 N/A
5:55 pm 17:55 Sunny 81 27.1 42 5.5 25 25 ENE 10 17 29.86 1011 10 16 N/A
6:15 pm 18:15 Sunny 79 26.2 41 5.2 26 26 ENE 10 17 29.87 1011 10 16 N/A
6:35 pm 18:35 Sunny 77 25.2 41 5.2 28 28 ENE 9 15 29.88 1012 10 16 N/A
6:55 pm 18:55 Sunny 75 23.8 42 5.5 31 31 E 9 15 29.89 1012 10 16 N/A
7:15 pm 19:15 Clear 72 22.4 42 5.5 33 33 ENE 9 15 29.91 1013 10 16 N/A
7:35 pm 19:35 Clear 69 20.7 42 5.3 37 37 ENE 8 13 29.92 1013 10 16 N/A
7:55 pm 19:55 Clear 67 19.4 43 6 42 42 ENE 8 13 29.94 1014 10 16 N/A
8:15 pm 20:15 Clear 66 18.8 43 6.3 44 44 ENE 9 15 29.95 1014 10 16 N/A
8:35 pm 20:35 Clear 66 18.7 44 6.6 45 45 ENE 9 15 29.96 1014 10 16 N/A
8:55 pm 20:55 Clear 65 18.1 44 6.7 47 47 ENE 9 15 29.96 1015 7 11 N/A
9:15 pm 21:15 Clear 63 17.1 44 6.9 51 51 ENE 9 15 29.98 1015 10 16 N/A
9:35 pm 21:35 Clear 62 16.6 45 7.1 54 54 ENE 7 11 29.99 1015 10 16 N/A
9:55 pm 21:55 Clear 61 16.2 45 7.3 56 56 NE 8 13 30.00 1016 10 16 N/A
10:15 pm 22:15 Clear 61 16.1 45 7.2 56 56 ENE 9 15 30.01 1016 10 16 N/A
10:35 pm 22:35 Clear 61 16.1 45 7 55 55 ENE 10 17 30.00 1016 10 16 N/A
10:55 pm 22:55 Clear 60 15.7 44 6.9 56 56 ENE 9 15 30.01 1016 10 16 N/A
11:15 pm 23:15 Clear 60 15.6 44 6.6 55 55 ENE 9 15 30.01 1016 10 16 N/A
11:35 pm 23:35 Clear 60 15.3 44 6.4 56 56 ENE 9 15 30.02 1016 10 16 N/A
11:55 pm 23:55 Clear 59 15.1 43 6.1 55 55 ENE 9 15 30.02 1017 10 16 N/A

Powered by AerisWeather